Weather History for Kalamazoo, MI

Change the Weather History Date:

Tuesday, October 8, 2013

  Actual Average Record
Temperature  
Mean Temperature 57 °F 53 °F  
Max Temperature 71 °F 64 °F 86 °F (2007)
Min Temperature 43 °F 43 °F 28 °F (1952)
Degree Days  
Heating Degree Days 8 12  
Month to date heating degree days 29 87  
Since 1 July heating degree days 185 236  
Cooling Degree Days 0 0  
Month to date cooling degree days 16 7  
Year to date cooling degree days 725 674  
Growing Degree Days 7 (Base 50)    
Moisture  
Dew Point 45 °F    
Average Humidity 68    
Maximum Humidity 92    
Minimum Humidity 44    
Precipitation  
Precipitation 0.00 in 0.09 in 0.71 in (1965)
Month to date precipitation 1.09 0.87  
Year to date precipitation 31.91 28.28  
Sea Level Pressure  
Sea Level Pressure 30.22 in    
Wind  
Wind Speed 5 mph (SSE)    
Max Wind Speed 15 mph    
Max Gust Speed 21 mph    
Visibility 10 miles    
Events      
T = Trace of Precipitation, MM = Missing Value Source: NWS Daily Summary

Daily Weather History Graph

Daily Weather History Graph

Search for Another Location

Airport:

Trip Planner

Search our weather history database for the weather conditions in past years. The results will help you decide how hot, cold, wet, or windy it might be!

Date:

Astronomy

Oct. 08, 2013 Rise Set
Actual Time 7:47 AM EDT 7:11 PM EDT
Civil Twilight 7:19 AM EDT 7:39 PM EDT
Nautical Twilight 6:46 AM EDT 8:11 PM EDT
Astronomical Twilight 6:14 AM EDT 8:44 PM EDT
Moon 11:44 AM EDT (10/8) 9:43 PM EDT (10/8)
Length of Visible Light 12h 20m
Length of Day
11h 24m
Waxing Crescent, 16% of the Moon is Illuminated
Oct 8
Waxing Crescent
Oct 11
First Quarter
Oct 18
Full
Oct 26
Last Quarter
Nov 3
New

Hourly Weather History & Observations

Time (EDT) Temp. Windchill Dew Point Humidity Pressure Visibility Wind Dir Wind Speed Gust Speed Precip Events Conditions
12:53 AM 45.0 °F - 43.0 °F 93% 30.14 in 10.0 mi Calm Calm - N/A   Clear
1:53 AM 44.1 °F 42.5 °F 42.1 °F 93% 30.16 in 10.0 mi South 3.5 mph - N/A   Clear
2:53 AM 46.0 °F 43.9 °F 43.0 °F 89% 30.17 in 10.0 mi South 4.6 mph - N/A   Clear
3:53 AM 46.9 °F - 43.0 °F 86% 30.17 in 10.0 mi SSE 4.6 mph - N/A   Clear
4:53 AM 46.9 °F - 42.1 °F 83% 30.18 in 10.0 mi SSE 4.6 mph - N/A   Clear
5:53 AM 46.9 °F - 42.1 °F 83% 30.19 in 10.0 mi South 4.6 mph - N/A   Clear
6:53 AM 45.0 °F - 41.0 °F 86% 30.21 in 10.0 mi Calm Calm - N/A   Clear
7:53 AM 44.1 °F - 41.0 °F 89% 30.23 in 10.0 mi Calm Calm - N/A   Clear
8:53 AM 50.0 °F - 44.1 °F 80% 30.24 in 10.0 mi Variable 3.5 mph - N/A   Clear
9:53 AM 55.9 °F - 45.0 °F 67% 30.26 in 10.0 mi South 5.8 mph - N/A   Clear
10:53 AM 61.0 °F - 46.0 °F 58% 30.26 in 10.0 mi SSE 8.1 mph - N/A   Clear
11:53 AM 64.0 °F - 48.0 °F 56% 30.26 in 10.0 mi SSE 8.1 mph - N/A   Clear
12:53 PM 66.9 °F - 48.9 °F 52% 30.25 in 10.0 mi South 11.5 mph - N/A   Clear
2:53 PM 70.0 °F - 48.9 °F 47% 30.21 in 10.0 mi South 12.7 mph 19.6 mph N/A   Clear
3:53 PM 70.0 °F - 48.0 °F 46% 30.21 in 10.0 mi South 6.9 mph - N/A   Clear
4:53 PM 70.0 °F - 48.0 °F 46% 30.20 in 10.0 mi SSW 9.2 mph - N/A   Clear
5:53 PM 70.0 °F - 46.9 °F 44% 30.21 in 10.0 mi South 6.9 mph - N/A   Clear
6:53 PM 66.9 °F - 46.9 °F 49% 30.21 in 10.0 mi SSE 4.6 mph - N/A   Clear
7:53 PM 61.0 °F - 46.9 °F 60% 30.23 in 10.0 mi SE 3.5 mph - N/A   Clear
8:53 PM 59.0 °F - 46.9 °F 64% 30.24 in 10.0 mi SE 4.6 mph - N/A   Clear
9:53 PM 57.9 °F - 46.0 °F 65% 30.25 in 10.0 mi SSE 3.5 mph - N/A   Clear
10:53 PM 57.9 °F - 46.0 °F 65% 30.25 in 10.0 mi SSE 4.6 mph - N/A   Clear
11:53 PM 55.0 °F - 45.0 °F 69% 30.25 in 10.0 mi Calm Calm - N/A   Clear